Skip Page Navigation
NASA JPL Caltech
NASA Logo - Jet Propulsion Laboratory + View the NASA Portal
+ Center for Near-Earth Object Studies
JPL Home Earth Solar System Stars & Galaxies Technology
JPL Solar System Dynamics
BODIES ORBITS EPHEMERIDES TOOLS PHYSICAL DATA DISCOVERY FAQ SITE MAP
JPL Small-Body Database Browser
Search: [ help ]  
135952 (2002 TJ226)
Classification: Main-belt Asteroid          SPK-ID: 2135952
Ephemeris | Orbit Diagram | Orbital Elements | Mission Design | Physical Parameters | Discovery Circumstances ]

[ show orbit diagram ]
Orbital Elements at Epoch 2459200.5 (2020-Dec-17.0) TDB
Reference: JPL 19 (heliocentric ecliptic J2000)
 Element Value Uncertainty (1-sigma)   Units 
e .2450214428062752 4.7589e-08  
a 2.692939614581352 1.1527e-08 au
q 2.033111664826455 1.2411e-07 au
i 14.89200447190753 5.3544e-06 deg
node 65.63822344088041 1.7598e-05 deg
peri 335.3589735972643 2.1326e-05 deg
M 42.4784115693036 1.2317e-05 deg
tp 2459010.039852139348
(2020-Jun-09.53985214)
5.4754e-05 TDB
period 1614.129405897624
4.42
1.0363e-05
2.837e-08
d
yr
n .2230304451951933 1.432e-09 deg/d
Q 3.35276756433625 1.4351e-08 au
  Orbit Determination Parameters
   # obs. used (total)      619  
   data-arc span      9873 days (27.03 yr)  
   first obs. used      1994-02-11  
   last obs. used      2021-02-22  
   planetary ephem.      DE441  
   SB-pert. ephem.      SB441-N16  
   condition code      0  
   norm. resid. RMS      .48073  
   source      ORB  
   producer      Otto Matic  
   solution date      2021-Apr-13 18:15:18  

Additional Information
 Earth MOID = 1.05084 au 
 Jupiter MOID = 2.07282 au 
 T_jup = 3.280 
[ show covariance matrix ]

Ephemeris | Orbit Diagram | Orbital Elements | Mission Design | Physical Parameters | Discovery Circumstances ]

Physical Parameter Table
Parameter Symbol Value Units Sigma Reference Notes
absolute magnitude H 15.67   n/a MPCxxxxx  

135952 (2002 TJ226)          Discovered 2002-Oct-08 by LONEOS at Anderson Mesa
Reference: 20060907/Numbers.arcLast Updated: 2006-09-10
Ephemeris | Orbit Diagram | Orbital Elements | Mission Design | Physical Parameters | Discovery Circumstances ]
ABOUT SSD CREDITS/AWARDS PRIVACY/COPYRIGHT GLOSSARY LINKS
FirstGov 2021-May-14 20:51 UT
(server date/time)  
NASA Home Page
Site Manager:   Ryan S. Park
Webmaster  Alan B. Chamberlin